GW1995 Weather Reports


Display with metric or nautical units.
time (UTC)temp
F
wind
direction
speed
MPH
gust
MPH
rain 1hr
in
rain 24hr
in
rain mn
in
humidity
%
barometer
mb
20260503023914 62 255 3.0 8.0 0.00 0.00 0.00 39 1010.4
20260503023410 62 186 5.0 7.0 0.00 0.00 0.00 39 1010.4
20260503022908 61 224 2.0 7.0 0.00 0.00 0.00 40 1010.2
20260503022402 61 243 0.0 1.0 0.00 0.00 0.00 41 1010.4
20260503021858 61 217 1.0 3.0 0.00 0.00 0.00 41 1010.5
20260503021354 61 226 2.0 2.0 0.00 0.00 0.00 40 1010.4
20260503020851 61 225 2.0 2.0 0.00 0.00 0.00 40 1010.5
20260503020350 61 264 1.0 2.0 0.00 0.00 0.00 40 1010.5
20260503015845 62 224 1.0 2.0 0.00 0.00 0.00 40 1010.4
20260503015337 62 194 2.0 5.0 0.00 0.00 0.00 39 1010.5
20260503014833 62 204 3.0 5.0 0.00 0.00 0.00 39 1010.4
20260503014331 62 237 3.0 5.0 0.00 0.00 0.00 39 1010.6
20260503013828 63 237 1.0 7.0 0.00 0.00 0.00 37 1010.5
20260503013325 62 247 2.0 3.0 0.00 0.00 0.00 39 1010.7
20260503012822 62 254 2.0 2.0 0.00 0.00 0.00 39 1010.5
20260503012320 63 222 2.0 3.0 0.00 0.00 0.00 38 1010.4
20260503011816 63 203 3.0 7.0 0.00 0.00 0.00 38 1010.6
20260503011313 63 205 4.0 6.0 0.00 0.00 0.00 37 1010.4
20260503010809 63 227 2.0 3.0 0.00 0.00 0.00 37 1010.8
20260503010307 63 242 3.0 3.0 0.00 0.00 0.00 37 1010.6
20260503005804 63 257 4.0 6.0 0.00 0.00 0.00 36 1010.6
20260503005304 64 258 3.0 5.0 0.00 0.00 0.00 37 1010.5
20260503004757 64 287 3.0 3.0 0.00 0.00 0.00 36 1010.7
20260503004255 64 240 3.0 3.0 0.00 0.00 0.00 35 1010.7
20260503003752 64 238 1.0 2.0 0.00 0.00 0.00 35 1010.5
20260503003249 64 216 3.0 5.0 0.00 0.00 0.00 35 1010.5
20260503002746 64 254 2.0 6.0 0.00 0.00 0.00 35 1010.4
20260503002243 64 226 4.0 6.0 0.00 0.00 0.00 33 1010.6
20260503001739 64 227 3.0 6.0 0.00 0.00 0.00 33 1010.4
20260503001235 64 218 1.0 2.0 0.00 0.00 0.00 33 1010.4
20260503000734 64 240 0.0 2.0 0.00 0.00 0.00 34 1010.4
20260503000233 64 235 1.0 3.0 0.00 0.00 0.00 33 1010.4
20260502235727 65 185 4.0 6.0 0.00 0.00 0.00 33 1010.5
20260502235226 64 250 2.0 3.0 0.00 0.00 0.00 33 1010.7
20260502234721 64 199 2.0 5.0 0.00 0.00 0.00 33 1010.6
20260502234219 64 192 2.0 5.0 0.00 0.00 0.00 32 1010.4
20260502233714 64 193 2.0 2.0 0.00 0.00 0.00 33 1010.6
20260502233211 64 182 1.0 2.0 0.00 0.00 0.00 33 1010.7
20260502232707 65 210 1.0 2.0 0.00 0.00 0.00 32 1010.9
20260502232205 64 300 1.0 2.0 0.00 0.00 0.00 32 1010.7
20260502231701 64 248 3.0 3.0 0.00 0.00 0.00 33 1011.1
20260502231159 64 257 1.0 2.0 0.00 0.00 0.00 32 1011.3
20260502230658 64 203 3.0 6.0 0.00 0.00 0.00 31 1011.2
20260502230156 64 240 3.0 5.0 0.00 0.00 0.00 32 1011.0
20260502225651 64 249 2.0 3.0 0.00 0.00 0.00 32 1011.0
20260502225149 64 233 3.0 3.0 0.00 0.00 0.00 32 1011.1
20260502224644 64 236 2.0 7.0 0.00 0.00 0.00 31 1011.2
20260502224141 65 215 2.0 5.0 0.00 0.00 0.00 32 1011.2
20260502223639 65 214 3.0 8.0 0.00 0.00 0.00 31 1011.2
20260502223137 65 265 5.0 8.0 0.00 0.00 0.00 30 1011.3
20260502222634 66 193 4.0 8.0 0.00 0.00 0.00 30 1011.4
20260502222131 66 234 3.0 5.0 0.00 0.00 0.00 30 1011.3
20260502221626 66 268 4.0 7.0 0.00 0.00 0.00 29 1011.5
20260502221124 65 230 5.0 6.0 0.00 0.00 0.00 31 1011.6
20260502220620 65 234 3.0 7.0 0.00 0.00 0.00 30 1011.6
20260502220116 66 173 3.0 7.0 0.00 0.00 0.00 30 1011.5
20260502215614 65 241 2.0 6.0 0.00 0.00 0.00 31 1011.6
20260502215110 65 232 6.0 8.0 0.00 0.00 0.00 30 1011.8
20260502214607 66 237 3.0 5.0 0.00 0.00 0.00 30 1011.9
20260502214105 64 284 2.0 5.0 0.00 0.00 0.00 30 1012.0
20260502213602 65 227 4.0 8.0 0.00 0.00 0.00 30 1012.0
20260502213059 64 284 5.0 6.0 0.00 0.00 0.00 30 1012.0
20260502212558 64 256 3.0 7.0 0.00 0.00 0.00 30 1012.1
20260502212055 67 207 5.0 9.0 0.00 0.00 0.00 30 1012.0
20260502211550 66 265 1.0 5.0 0.00 0.00 0.00 31 1012.4
20260502211048 65 233 7.0 8.0 0.00 0.00 0.00 30 1012.3
20260502210545 65 246 3.0 5.0 0.00 0.00 0.00 29 1012.4
20260502210042 65 319 4.0 7.0 0.00 0.00 0.00 30 1012.6
20260502205538 66 193 4.0 5.0 0.00 0.00 0.00 30 1012.6
20260502205036 65 229 3.0 9.0 0.00 0.00 0.00 30 1012.9
20260502204532 64 216 4.0 7.0 0.00 0.00 0.00 30 1012.9
20260502204030 64 256 3.0 9.0 0.00 0.00 0.00 31 1013.0
20260502203527 65 146 4.0 7.0 0.00 0.00 0.00 31 1013.3
20260502203024 64 262 1.0 7.0 0.00 0.00 0.00 30 1013.1
20260502202520 64 302 3.0 7.0 0.00 0.00 0.00 29 1013.3
20260502202019 64 249 3.0 8.0 0.00 0.00 0.00 30 1013.6
20260502201514 64 264 3.0 6.0 0.00 0.00 0.00 30 1013.6
20260502201010 64 277 3.0 3.0 0.00 0.00 0.00 30 1013.8
20260502200507 63 240 5.0 7.0 0.00 0.00 0.00 31 1013.9
20260502200005 64 193 8.0 10.0 0.00 0.00 0.00 29 1013.9
20260502195502 63 283 4.0 6.0 0.00 0.00 0.00 31 1013.8
20260502194958 62 274 5.0 11.0 0.00 0.00 0.00 30 1014.1
20260502194455 63 262 3.0 7.0 0.00 0.00 0.00 30 1013.8
20260502193950 63 206 6.0 9.0 0.00 0.00 0.00 31 1013.9
20260502193448 64 259 4.0 7.0 0.00 0.00 0.00 30 1014.4
20260502192944 62 237 2.0 9.0 0.00 0.00 0.00 30 1014.4
20260502192441 62 240 4.0 7.0 0.00 0.00 0.00 31 1014.5
20260502191937 62 248 4.0 6.0 0.00 0.00 0.00 31 1014.5
20260502191435 61 236 3.0 6.0 0.00 0.00 0.00 32 1014.5
20260502190933 61 246 4.0 7.0 0.00 0.00 0.00 32 1014.7
20260502190430 60 224 2.0 2.0 0.00 0.00 0.00 32 1014.7
20260502185926 61 250 6.0 8.0 0.00 0.00 0.00 31 1015.0
20260502185421 61 207 3.0 5.0 0.00 0.00 0.00 33 1014.9
20260502184919 60 212 3.0 6.0 0.00 0.00 0.00 33 1015.0
20260502184414 60 196 6.0 7.0 0.00 0.00 0.00 34 1015.1
20260502183911 60 277 3.0 5.0 0.00 0.00 0.00 32 1015.2
20260502183407 60 218 2.0 7.0 0.00 0.00 0.00 32 1015.5
20260502182903 60 219 3.0 8.0 0.00 0.00 0.00 32 1015.4
20260502182358 60 248 3.0 6.0 0.00 0.00 0.00 32 1015.2
20260502181855 59 220 4.0 8.0 0.00 0.00 0.00 33 1015.4
20260502181353 59 246 2.0 2.0 0.00 0.00 0.00 32 1015.7
20260502180851 58 214 1.0 2.0 0.00 0.00 0.00 34 1015.8
20260502180348 59 181 3.0 5.0 0.00 0.00 0.00 34 1015.8
20260502170306 57 319 5.0 11.0 0.00 0.00 0.00 35 1016.7
20260502164255 56 293 2.0 3.0 0.00 0.00 0.00 34 1016.9
20260502163750 56 296 4.0 9.0 0.00 0.00 0.00 35 1017.0
20260502163247 56 264 2.0 5.0 0.00 0.00 0.00 35 1017.1
20260502162744 56 253 2.0 6.0 0.00 0.00 0.00 34 1017.0
20260502162240 56 195 4.0 6.0 0.00 0.00 0.00 36 1017.2
20260502161737 56 250 1.0 6.0 0.00 0.00 0.00 36 1017.2
20260502161234 55 242 5.0 6.0 0.00 0.00 0.00 36 1017.2
20260502160732 56 216 5.0 8.0 0.00 0.00 0.00 35 1017.2
20260502160231 55 239 2.0 5.0 0.00 0.00 0.00 37 1017.5
20260502152155 54 317 5.0 7.0 0.00 0.00 0.00 38 1017.8
20260502151652 55 298 5.0 6.0 0.00 0.00 0.00 38 1017.6
20260502151149 54 293 2.0 3.0 0.00 0.00 0.00 39 1017.8
20260502150647 53 246 2.0 3.0 0.00 0.00 0.00 39 1017.8
20260502150143 54 276 4.0 8.0 0.00 0.00 0.00 39 1017.7
20260502140107 50 284 2.0 6.0 0.00 0.00 0.00 45 1018.3
20260502130532 43 239 1.0 1.0 0.00 0.00 0.00 63 1018.3
20260502123515 40 214 1.0 1.0 0.00 0.00 0.00 66 1018.4
20260502123011 40 215 1.0 1.0 0.00 0.00 0.00 66 1018.4
20260502122508 39 215 0.0 1.0 0.00 0.00 0.00 67 1018.4
20260502122006 38 215 0.0 0.0 0.00 0.00 0.00 69 1018.3
20260502121503 38 216 0.0 0.0 0.00 0.00 0.00 70 1018.2
20260502121000 37 215 0.0 1.0 0.00 0.00 0.00 70 1018.1
20260502120456 37 216 0.0 0.0 0.00 0.00 0.00 71 1018.1
20260502115450 36 216 0.0 0.0 0.00 0.00 0.00 75 1018.2
20260502114946 36 216 0.0 0.0 0.00 0.00 0.00 76 1018.2
20260502114443 35 215 0.0 0.0 0.00 0.00 0.00 76 1018.1
20260502113941 34 215 1.0 1.0 0.00 0.00 0.00 77 1018.0
20260502113438 34 215 0.0 1.0 0.00 0.00 0.00 77 1018.1
20260502112937 34 215 1.0 1.0 0.00 0.00 0.00 78 1018.1
20260502112434 33 214 1.0 2.0 0.00 0.00 0.00 78 1017.9
20260502111931 33 216 0.0 1.0 0.00 0.00 0.00 77 1017.9
20260502111428 33 216 1.0 1.0 0.00 0.00 0.00 79 1018.1
20260502110926 33 216 1.0 1.0 0.00 0.00 0.00 80 1017.9
20260502110423 32 216 0.0 1.0 0.00 0.00 0.00 81 1018.0
20260502105920 32 216 0.0 0.0 0.00 0.00 0.00 80 1018.0
20260502105417 33 216 0.0 1.0 0.00 0.00 0.00 80 1018.0
20260502104916 33 216 0.0 0.0 0.00 0.00 0.00 80 1018.0
20260502104412 33 216 0.0 0.0 0.00 0.00 0.00 80 1018.1
20260502103909 33 216 0.0 0.0 0.00 0.00 0.00 80 1017.8
20260502103408 33 216 0.0 0.0 0.00 0.00 0.00 80 1017.9
20260502102904 32 216 0.0 0.0 0.00 0.00 0.00 80 1018.0
20260502102400 33 216 0.0 0.0 0.00 0.00 0.00 79 1018.0
20260502101858 33 216 0.0 0.0 0.00 0.00 0.00 79 1017.8
20260502101356 33 216 0.0 0.0 0.00 0.00 0.00 79 1017.9
20260502100854 33 216 0.0 0.0 0.00 0.00 0.00 78 1018.1
20260502100353 33 216 0.0 0.0 0.00 0.00 0.00 78 1017.9
20260502091327 34 215 0.0 1.0 0.00 0.00 0.00 78 1017.9
20260502090825 34 215 0.0 0.0 0.00 0.00 0.00 78 1017.9
20260502090321 34 215 0.0 0.0 0.00 0.00 0.00 79 1017.9
20260502071216 36 216 0.0 0.0 0.00 0.00 0.00 73 1018.1
20260502070715 36 216 0.0 0.0 0.00 0.00 0.00 73 1018.2
20260502070212 36 216 0.0 1.0 0.00 0.00 0.00 72 1018.1
20260502065710 36 216 0.0 1.0 0.00 0.00 0.00 72 1018.1
20260502065208 36 216 0.0 1.0 0.00 0.00 0.00 72 1018.2
20260502064706 36 216 0.0 0.0 0.00 0.00 0.00 72 1018.2
20260502064157 36 216 0.0 0.0 0.00 0.00 0.00 72 1018.3
20260502063655 37 216 0.0 0.0 0.00 0.00 0.00 72 1018.3
20260502063153 36 216 0.0 0.0 0.00 0.00 0.00 72 1018.4
20260502062649 37 216 0.0 0.0 0.00 0.00 0.00 72 1018.4
20260502062147 37 216 0.0 1.0 0.00 0.00 0.00 72 1018.3
20260502061645 37 216 0.0 1.0 0.00 0.00 0.00 71 1018.2
20260502061142 37 216 0.0 0.0 0.00 0.00 0.00 71 1018.3
20260502060637 37 216 0.0 0.0 0.00 0.00 0.00 70 1018.3
20260502060133 38 216 0.0 1.0 0.00 0.00 0.00 69 1018.4
20260502055631 38 216 0.0 1.0 0.00 0.00 0.00 68 1018.3
20260502055129 38 216 0.0 1.0 0.00 0.00 0.00 67 1018.4
20260502054628 38 216 1.0 1.0 0.00 0.00 0.00 67 1018.4
20260502054125 38 216 0.0 0.0 0.00 0.00 0.00 68 1018.3
20260502053622 38 216 1.0 1.0 0.00 0.00 0.00 67 1018.3
20260502053119 38 216 0.0 1.0 0.00 0.00 0.00 67 1018.3
20260502052618 39 216 0.0 0.0 0.00 0.00 0.00 67 1018.4
20260502052115 39 216 0.0 0.0 0.00 0.00 0.00 65 1018.4
20260502051613 39 215 1.0 1.0 0.00 0.00 0.00 65 1018.4
20260502051111 39 219 0.0 1.0 0.00 0.00 0.00 66 1018.2
20260502050607 39 218 1.0 1.0 0.00 0.00 0.00 65 1018.4
20260502050104 39 243 1.0 1.0 0.00 0.00 0.00 65 1018.2
20260502045600 39 243 1.0 1.0 0.00 0.00 0.00 66 1018.3
20260502045058 40 243 1.0 1.0 0.00 0.00 0.00 64 1018.3
20260502044554 40 244 1.0 2.0 0.00 0.00 0.00 63 1018.1
20260502044051 40 251 1.0 2.0 0.00 0.00 0.00 64 1018.1
20260502043548 40 251 1.0 2.0 0.00 0.00 0.00 64 1018.3
20260502043044 41 252 1.0 1.0 0.00 0.00 0.00 62 1018.3
20260502042539 40 268 1.0 1.0 0.00 0.00 0.00 63 1018.3
20260502042037 41 268 1.0 1.0 0.00 0.00 0.00 64 1018.2
20260502041535 41 268 1.0 1.0 0.00 0.00 0.00 62 1018.1
20260502041032 41 269 1.0 1.0 0.00 0.00 0.00 62 1018.1
20260502040528 41 269 1.0 1.0 0.00 0.00 0.00 62 1018.2
20260502040025 41 269 0.0 1.0 0.00 0.00 0.00 61 1018.3
20260502035521 41 269 0.0 1.0 0.00 0.00 0.00 61 1018.4
20260502035019 42 269 1.0 1.0 0.00 0.00 0.00 60 1018.1
20260502034516 42 269 0.0 1.0 0.00 0.00 0.00 60 1018.3
20260502034015 42 269 0.0 1.0 0.00 0.00 0.00 59 1018.4
20260502033513 42 270 0.0 1.0 0.00 0.00 0.00 60 1018.4
20260502033010 42 270 1.0 1.0 0.00 0.00 0.00 58 1018.4
20260502032505 42 270 1.0 1.0 0.00 0.00 0.00 58 1018.5
20260502032003 42 270 0.0 1.0 0.00 0.00 0.00 57 1018.4
20260502031501 43 270 0.0 1.0 0.00 0.00 0.00 56 1018.2
20260502030958 43 270 1.0 1.0 0.00 0.00 0.00 54 1018.3
20260502030456 43 270 1.0 2.0 0.00 0.00 0.00 56 1018.3
20260502025954 43 283 0.0 1.0 0.00 0.00 0.00 54 1018.4
20260502025451 44 283 0.0 1.0 0.00 0.00 0.00 54 1018.2
20260502024949 44 283 1.0 1.0 0.00 0.00 0.00 51 1018.2
20260502024447 44 283 0.0 1.0 0.00 0.00 0.00 52 1018.2